Tracking 26922 objects as of 30-Jan-2023
HD Live streaming from Space Station
objects crossing your sky now

DIAMANT B-P4 DEB

Track DIAMANT B-P4 DEB now!
10-day predictions


NORAD ID: 7654
Int'l Code: 1975-010C
Perigee: 792.4 km
Apogee: 1,047.2 km
Inclination: 49.8 °
Period: 103.3 minutes
Semi major axis: 7290 km
RCS: 0.0394 m2 (small)
Launch date: February 6, 1975
Source: France (FR)
Launch site: FRENCH GUIANA (FRGUI)

Note: This is SATELLITE DEBRIS
Your satellite tracking list
Your tracking list is empty




NASA's NSSDC Master Catalog

Two Line Element Set (TLE):
1 07654U 75010C   23028.66561790  .00000416  00000-0  36823-3 0  9996
2 07654  49.8459 124.9126 0174706 253.0461 105.1223 13.94564649437452
Source of the keplerian elements: AFSPC